| time (UTC) | temp F | wind direction | speed MPH | gust MPH | rain 1hr in | rain 24hr in | rain mn in | humidity % | barometer mb |
| 20260903123404 | 66 | 37 | 0.0 | 0.0 | 0.00 | 0.14 | 0.14 | 99 | 1013.5 |
| 20260903122903 | 66 | 42 | 0.0 | 2.0 | 0.00 | 0.14 | 0.14 | 99 | 1013.5 |
| 20260903122358 | 65 | 235 | 0.0 | 1.0 | 0.00 | 0.14 | 0.14 | 99 | 1013.5 |
| 20260903121857 | 65 | 9 | 1.0 | 2.0 | 0.00 | 0.14 | 0.14 | 99 | 1013.5 |
| 20260903121352 | 65 | 305 | 0.0 | 1.0 | 0.00 | 0.14 | 0.14 | 99 | 1013.6 |
| 20260903120848 | 65 | 150 | 0.0 | 2.0 | 0.00 | 0.14 | 0.14 | 99 | 1013.4 |
| 20260903120347 | 65 | 304 | 0.0 | 2.0 | 0.00 | 0.14 | 0.14 | 99 | 1013.8 |
| 20260903115845 | 65 | 337 | 1.0 | 1.0 | 0.00 | 0.14 | 0.14 | 99 | 1013.7 |
| 20260903115340 | 65 | 37 | 0.0 | 2.0 | 0.00 | 0.14 | 0.14 | 99 | 1013.8 |
| 20260903114839 | 64 | 232 | 0.0 | 2.0 | 0.00 | 0.14 | 0.14 | 99 | 1013.8 |
| 20260903114330 | 64 | 331 | 0.0 | 1.0 | 0.00 | 0.14 | 0.14 | 99 | 1013.9 |
| 20260903113825 | 64 | 217 | 0.0 | 2.0 | 0.00 | 0.14 | 0.14 | 99 | 1013.8 |
| 20260903113321 | 65 | 237 | 0.0 | 2.0 | 0.00 | 0.14 | 0.14 | 99 | 1013.9 |
| 20260903112817 | 64 | 150 | 0.0 | 1.0 | 0.00 | 0.14 | 0.14 | 99 | 1014.0 |
| 20260903112313 | 64 | 5 | 0.0 | 1.0 | 0.00 | 0.14 | 0.14 | 99 | 1014.0 |
| 20260903111811 | 64 | 24 | 0.0 | 1.0 | 0.00 | 0.14 | 0.14 | 99 | 1013.9 |
| 20260903111306 | 64 | 324 | 0.0 | 2.0 | 0.00 | 0.14 | 0.14 | 99 | 1014.0 |
| 20260903110802 | 64 | 44 | 0.0 | 0.0 | 0.09 | 0.14 | 0.14 | 99 | 1014.2 |
| 20260903110258 | 64 | 49 | 0.0 | 2.0 | 0.09 | 0.14 | 0.14 | 99 | 1014.0 |
| 20260903105757 | 64 | 129 | 1.0 | 2.0 | 0.00 | 0.13 | 0.13 | 99 | 1014.1 |
| 20260903105253 | 64 | 189 | 0.0 | 2.0 | 0.02 | 0.13 | 0.13 | 99 | 1014.1 |
| 20260903104752 | 64 | 21 | 1.0 | 2.0 | 0.17 | 0.13 | 0.13 | 99 | 1014.1 |
| 20260903104247 | 64 | 50 | 0.0 | 2.0 | 0.12 | 0.11 | 0.11 | 99 | 1014.1 |
| 20260903103743 | 64 | 241 | 0.0 | 1.0 | 0.02 | 0.09 | 0.09 | 99 | 1013.8 |
| 20260903103239 | 64 | 66 | 0.0 | 1.0 | 0.00 | 0.09 | 0.09 | 99 | 1013.7 |
| 20260903102735 | 64 | 175 | 0.0 | 1.0 | 0.00 | 0.09 | 0.09 | 99 | 1013.8 |
| 20260903102234 | 64 | 47 | 0.0 | 1.0 | 0.00 | 0.09 | 0.09 | 99 | 1013.7 |
| 20260903101733 | 64 | 333 | 0.0 | 2.0 | 0.00 | 0.09 | 0.09 | 99 | 1013.6 |
| 20260903101229 | 64 | 355 | 0.0 | 0.0 | 0.00 | 0.09 | 0.09 | 99 | 1013.6 |
| 20260903100724 | 64 | 342 | 0.0 | 1.0 | 0.00 | 0.09 | 0.09 | 99 | 1013.7 |
| 20260903100224 | 64 | 329 | 0.0 | 2.0 | 0.00 | 0.09 | 0.09 | 99 | 1013.6 |
| 20260903095721 | 64 | 254 | 0.0 | 1.0 | 0.00 | 0.09 | 0.09 | 99 | 1013.5 |
| 20260903095216 | 64 | 230 | 0.0 | 1.0 | 0.00 | 0.09 | 0.09 | 99 | 1013.4 |
| 20260903094711 | 64 | 40 | 1.0 | 2.0 | 0.00 | 0.09 | 0.09 | 99 | 1013.4 |
| 20260903094206 | 64 | 189 | 0.0 | 1.0 | 0.00 | 0.09 | 0.09 | 99 | 1013.3 |
| 20260903093701 | 64 | 23 | 0.0 | 3.0 | 0.00 | 0.09 | 0.09 | 99 | 1013.3 |
| 20260903093157 | 64 | 101 | 0.0 | 3.0 | 0.00 | 0.09 | 0.09 | 99 | 1013.4 |
| 20260903092651 | 64 | 305 | 0.0 | 3.0 | 0.00 | 0.09 | 0.09 | 99 | 1013.4 |
| 20260903092145 | 64 | 325 | 1.0 | 2.0 | 0.00 | 0.09 | 0.09 | 99 | 1013.2 |
| 20260903091638 | 64 | 49 | 2.0 | 2.0 | 0.00 | 0.09 | 0.09 | 99 | 1013.4 |
| 20260903091132 | 64 | 237 | 0.0 | 2.0 | 0.00 | 0.09 | 0.09 | 99 | 1013.4 |
| 20260903090628 | 64 | 173 | 0.0 | 2.0 | 0.00 | 0.09 | 0.09 | 99 | 1013.6 |
| 20260903090127 | 64 | 189 | 0.0 | 2.0 | 0.00 | 0.09 | 0.09 | 99 | 1013.6 |
| 20260903085626 | 64 | 342 | 0.0 | 1.0 | 0.02 | 0.09 | 0.09 | 99 | 1013.7 |
| 20260903085121 | 64 | 62 | 0.0 | 1.0 | 0.02 | 0.09 | 0.09 | 99 | 1013.9 |
| 20260903084619 | 64 | 115 | 0.0 | 2.0 | 0.00 | 0.09 | 0.09 | 99 | 1013.9 |
| 20260903084114 | 64 | 93 | 0.0 | 2.0 | 0.00 | 0.09 | 0.09 | 99 | 1013.8 |
| 20260903083609 | 64 | 128 | 0.0 | 2.0 | 0.00 | 0.09 | 0.09 | 99 | 1013.8 |
| 20260903083103 | 64 | 136 | 0.0 | 3.0 | 0.00 | 0.09 | 0.09 | 99 | 1013.9 |
| 20260903082558 | 64 | 36 | 3.0 | 3.0 | 0.00 | 0.09 | 0.09 | 99 | 1013.7 |
| 20260903082054 | 64 | 73 | 0.0 | 2.0 | 0.00 | 0.09 | 0.09 | 99 | 1013.9 |
| 20260903081549 | 64 | 197 | 2.0 | 3.0 | 0.00 | 0.09 | 0.09 | 99 | 1014.0 |
| 20260903081045 | 63 | 216 | 0.0 | 3.0 | 0.00 | 0.09 | 0.09 | 99 | 1014.0 |
| 20260903080541 | 64 | 37 | 0.0 | 2.0 | 0.00 | 0.09 | 0.09 | 99 | 1014.2 |
| 20260903080038 | 63 | 175 | 0.0 | 2.0 | 0.00 | 0.09 | 0.09 | 99 | 1014.2 |
| 20260903075532 | 63 | 79 | 0.0 | 1.0 | 0.00 | 0.09 | 0.09 | 99 | 1014.1 |
| 20260903075027 | 63 | 144 | 0.0 | 2.0 | 0.00 | 0.09 | 0.09 | 99 | 1014.2 |
| 20260903074526 | 63 | 149 | 1.0 | 3.0 | 0.00 | 0.09 | 0.09 | 99 | 1014.0 |
| 20260903074021 | 63 | 215 | 1.0 | 2.0 | 0.00 | 0.09 | 0.09 | 99 | 1014.2 |
| 20260903073516 | 63 | 1 | 1.0 | 2.0 | 0.00 | 0.09 | 0.09 | 99 | 1014.3 |
| 20260903073012 | 63 | 317 | 3.0 | 5.0 | 0.00 | 0.09 | 0.09 | 99 | 1014.4 |
| 20260903072508 | 63 | 161 | 1.0 | 2.0 | 0.00 | 0.09 | 0.09 | 99 | 1014.3 |
| 20260903072005 | 63 | 12 | 0.0 | 2.0 | 0.00 | 0.09 | 0.09 | 99 | 1014.4 |
| 20260903071501 | 63 | 86 | 1.0 | 2.0 | 0.00 | 0.09 | 0.09 | 99 | 1014.5 |
| 20260903070955 | 63 | 113 | 0.0 | 2.0 | 0.00 | 0.09 | 0.09 | 99 | 1014.6 |
| 20260903070450 | 63 | 219 | 1.0 | 3.0 | 0.00 | 0.09 | 0.09 | 99 | 1014.4 |
| 20260903065950 | 63 | 59 | 2.0 | 3.0 | 0.00 | 0.09 | 0.09 | 99 | 1014.2 |
| 20260903065445 | 63 | 113 | 0.0 | 3.0 | 0.00 | 0.09 | 0.09 | 99 | 1014.4 |
| 20260903064944 | 63 | 69 | 1.0 | 2.0 | 0.00 | 0.09 | 0.09 | 99 | 1014.4 |
| 20260903064439 | 63 | 97 | 0.0 | 3.0 | 0.00 | 0.09 | 0.09 | 99 | 1014.7 |
| 20260903063935 | 63 | 81 | 0.0 | 2.0 | 0.00 | 0.09 | 0.09 | 99 | 1014.5 |
| 20260903063430 | 63 | 89 | 2.0 | 4.0 | 0.02 | 0.09 | 0.09 | 99 | 1014.5 |
| 20260903062926 | 63 | 100 | 0.0 | 1.0 | 0.02 | 0.09 | 0.09 | 99 | 1014.4 |
| 20260903062425 | 63 | 175 | 0.0 | 2.0 | 0.02 | 0.08 | 0.08 | 99 | 1014.4 |
| 20260903061921 | 63 | 57 | 1.0 | 2.0 | 0.05 | 0.08 | 0.08 | 99 | 1014.6 |
| 20260903061421 | 63 | 148 | 1.0 | 3.0 | 0.07 | 0.08 | 0.08 | 99 | 1014.6 |
| 20260903060916 | 63 | 109 | 0.0 | 2.0 | 0.09 | 0.07 | 0.07 | 99 | 1014.8 |
| 20260903060416 | 63 | 116 | 1.0 | 2.0 | 0.12 | 0.07 | 0.07 | 99 | 1015.1 |
| 20260903055914 | 63 | 137 | 0.0 | 0.0 | 0.07 | 0.06 | 0.06 | 99 | 1015.4 |
| 20260903055413 | 63 | 175 | 0.0 | 0.0 | 0.07 | 0.05 | 0.05 | 99 | 1015.6 |
| 20260903054907 | 63 | 175 | 0.0 | 0.0 | 0.02 | 0.04 | 0.04 | 99 | 1015.9 |
| 20260903054402 | 63 | 175 | 0.0 | 0.0 | 0.00 | 0.04 | 0.04 | 99 | 1016.0 |
| 20260903053858 | 63 | 175 | 0.0 | 0.0 | 0.07 | 0.04 | 0.04 | 99 | 1016.2 |
| 20260903053353 | 63 | 175 | 0.0 | 0.0 | 0.12 | 0.03 | 0.03 | 99 | 1016.3 |
| 20260903052849 | 63 | 167 | 1.0 | 2.0 | 0.07 | 0.02 | 0.02 | 98 | 1016.3 |
| 20260903052344 | 64 | 217 | 0.0 | 1.0 | 0.02 | 0.01 | 0.01 | 97 | 1016.5 |
| 20260903051840 | 64 | 202 | 0.0 | 0.0 | 0.02 | 0.01 | 0.01 | 97 | 1016.8 |
| 20260903051335 | 64 | 202 | 0.0 | 1.0 | 0.02 | 0.01 | 0.01 | 96 | 1016.8 |
| 20260903050831 | 64 | 175 | 0.0 | 1.0 | 0.02 | 0.00 | 0.00 | 96 | 1016.8 |
| 20260903050330 | 64 | 134 | 0.0 | 0.0 | 0.00 | 0.00 | 0.00 | 96 | 1016.9 |
| 20260903045825 | 64 | 9 | 0.0 | 2.0 | 0.00 | 0.00 | 0.00 | 96 | 1016.9 |
| 20260903045320 | 64 | 132 | 0.0 | 0.0 | 0.00 | 0.00 | 0.00 | 96 | 1016.7 |
| 20260903044817 | 64 | 132 | 0.0 | 0.0 | 0.00 | 0.00 | 0.00 | 96 | 1016.6 |
| 20260903044312 | 64 | 132 | 0.0 | 1.0 | 0.00 | 0.00 | 0.00 | 95 | 1016.4 |
| 20260903043809 | 64 | 125 | 0.0 | 0.0 | 0.00 | 0.00 | 0.00 | 95 | 1016.7 |
| 20260903043308 | 64 | 155 | 0.0 | 0.0 | 0.00 | 0.00 | 0.00 | 95 | 1017.0 |
| 20260903042807 | 64 | 155 | 0.0 | 0.0 | 0.00 | 0.00 | 0.00 | 95 | 1017.1 |
| 20260903042306 | 64 | 155 | 0.0 | 0.0 | 0.00 | 0.00 | 0.00 | 94 | 1017.0 |
| 20260903041759 | 64 | 284 | 0.0 | 0.0 | 0.00 | 0.00 | 0.00 | 93 | 1016.9 |
| 20260903041255 | 64 | 284 | 0.0 | 0.0 | 0.00 | 0.00 | 0.00 | 93 | 1017.0 |
| 20260903040754 | 64 | 284 | 0.0 | 0.0 | 0.00 | 0.00 | 0.00 | 93 | 1017.0 |
| 20260903040249 | 64 | 327 | 2.0 | 2.0 | 0.00 | 0.00 | 0.00 | 92 | 1016.9 |
| 20260903035745 | 65 | 70 | 0.0 | 2.0 | 0.00 | 0.00 | 0.00 | 92 | 1016.7 |
| 20260903035240 | 65 | 189 | 1.0 | 2.0 | 0.00 | 0.00 | 0.00 | 90 | 1016.9 |
| 20260903034741 | 65 | 65 | 0.0 | 1.0 | 0.00 | 0.00 | 0.00 | 91 | 1017.3 |
| 20260903034236 | 65 | 119 | 0.0 | 0.0 | 0.00 | 0.00 | 0.00 | 90 | 1017.0 |
| 20260903033731 | 65 | 36 | 1.0 | 2.0 | 0.00 | 0.00 | 0.00 | 90 | 1017.0 |
| 20260903033226 | 64 | 189 | 0.0 | 0.0 | 0.00 | 0.00 | 0.00 | 90 | 1016.6 |
| 20260903032720 | 64 | 44 | 0.0 | 2.0 | 0.00 | 0.00 | 0.00 | 91 | 1016.6 |
| 20260903032216 | 64 | 318 | 0.0 | 1.0 | 0.00 | 0.00 | 0.00 | 92 | 1016.6 |
| 20260903031712 | 64 | 150 | 0.0 | 2.0 | 0.00 | 0.00 | 0.00 | 92 | 1016.5 |
| 20260903031205 | 64 | 349 | 0.0 | 1.0 | 0.00 | 0.00 | 0.00 | 93 | 1016.7 |
| 20260903030702 | 65 | 317 | 0.0 | 0.0 | 0.00 | 0.00 | 0.00 | 93 | 1016.8 |
| 20260903030157 | 65 | 73 | 0.0 | 0.0 | 0.00 | 0.00 | 0.00 | 92 | 1016.7 |
| 20260903025652 | 65 | 241 | 0.0 | 1.0 | 0.00 | 0.00 | 0.00 | 92 | 1017.0 |
| 20260903025148 | 65 | 242 | 0.0 | 0.0 | 0.00 | 0.00 | 0.00 | 89 | 1017.3 |
| 20260903024643 | 65 | 83 | 0.0 | 0.0 | 0.00 | 0.00 | 0.00 | 89 | 1017.4 |
| 20260903024142 | 65 | 83 | 0.0 | 1.0 | 0.00 | 0.00 | 0.00 | 89 | 1017.4 |
| 20260903023638 | 65 | 62 | 0.0 | 2.0 | 0.00 | 0.00 | 0.00 | 89 | 1017.7 |
| 20260903023137 | 65 | 155 | 0.0 | 2.0 | 0.00 | 0.00 | 0.00 | 90 | 1017.6 |
| 20260903022632 | 65 | 122 | 0.0 | 2.0 | 0.00 | 0.00 | 0.00 | 92 | 1017.8 |
| 20260903022132 | 64 | 301 | 1.0 | 3.0 | 0.00 | 0.00 | 0.00 | 91 | 1018.0 |
| 20260903021632 | 64 | 144 | 0.0 | 0.0 | 0.00 | 0.00 | 0.00 | 94 | 1018.0 |
| 20260903021126 | 64 | 203 | 0.0 | 1.0 | 0.00 | 0.00 | 0.00 | 95 | 1018.0 |
| 20260903020621 | 65 | 213 | 0.0 | 0.0 | 0.00 | 0.00 | 0.00 | 94 | 1018.3 |
| 20260903020116 | 65 | 150 | 0.0 | 0.0 | 0.00 | 0.00 | 0.00 | 94 | 1018.2 |
| 20260903015612 | 65 | 266 | 0.0 | 0.0 | 0.00 | 0.00 | 0.00 | 92 | 1018.4 |
| 20260903015107 | 66 | 286 | 1.0 | 2.0 | 0.00 | 0.00 | 0.00 | 91 | 1018.4 |
| 20260903014606 | 66 | 83 | 0.0 | 2.0 | 0.00 | 0.00 | 0.00 | 91 | 1018.5 |
| 20260903014101 | 66 | 9 | 1.0 | 2.0 | 0.00 | 0.00 | 0.00 | 90 | 1018.5 |
| 20260903013601 | 66 | 46 | 1.0 | 2.0 | 0.00 | 0.00 | 0.00 | 87 | 1018.3 |
| 20260903013050 | 66 | 31 | 3.0 | 3.0 | 0.00 | 0.00 | 0.00 | 88 | 1018.0 |
| 20260903012549 | 66 | 280 | 0.0 | 2.0 | 0.00 | 0.00 | 0.00 | 88 | 1017.8 |
| 20260903012043 | 66 | 269 | 1.0 | 3.0 | 0.00 | 0.00 | 0.00 | 89 | 1017.8 |
| 20260903011543 | 66 | 9 | 0.0 | 2.0 | 0.00 | 0.00 | 0.00 | 90 | 1017.6 |
| 20260903011038 | 65 | 297 | 1.0 | 2.0 | 0.00 | 0.00 | 0.00 | 89 | 1017.6 |
| 20260903010533 | 65 | 5 | 2.0 | 2.0 | 0.00 | 0.00 | 0.00 | 92 | 1017.5 |
| 20260903010031 | 65 | 0 | 0.0 | 4.0 | 0.00 | 0.00 | 0.00 | 93 | 1017.6 |
| 20260903005531 | 65 | 104 | 0.0 | 2.0 | 0.00 | 0.00 | 0.00 | 96 | 1017.5 |
| 20260903005027 | 65 | 127 | 0.0 | 1.0 | 0.00 | 0.00 | 0.00 | 95 | 1017.8 |
| 20260903004526 | 65 | 224 | 0.0 | 0.0 | 0.00 | 0.00 | 0.00 | 94 | 1017.7 |
| 20260903004022 | 65 | 213 | 0.0 | 1.0 | 0.00 | 0.00 | 0.00 | 93 | 1017.9 |
| 20260903003517 | 65 | 73 | 0.0 | 1.0 | 0.00 | 0.00 | 0.00 | 92 | 1018.1 |
| 20260903003013 | 65 | 227 | 0.0 | 1.0 | 0.00 | 0.00 | 0.00 | 92 | 1017.8 |
| 20260903002513 | 66 | 37 | 0.0 | 0.0 | 0.00 | 0.00 | 0.00 | 92 | 1018.0 |
| 20260903002007 | 66 | 150 | 0.0 | 2.0 | 0.00 | 0.00 | 0.00 | 92 | 1018.0 |
| 20260903001502 | 66 | 162 | 0.0 | 0.0 | 0.00 | 0.00 | 0.00 | 91 | 1017.8 |
| 20260903000956 | 66 | 236 | 0.0 | 2.0 | 0.00 | 0.00 | 0.00 | 90 | 1018.1 |
| 20260903000451 | 66 | 132 | 0.0 | 1.0 | 0.00 | 0.00 | 0.00 | 89 | 1018.0 |
| 20260902235949 | 66 | 6 | 0.0 | 2.0 | 0.00 | 0.00 | 0.00 | 89 | 1017.9 |
| 20260902235444 | 66 | 73 | 0.0 | 1.0 | 0.00 | 0.00 | 0.00 | 89 | 1017.7 |
| 20260902234938 | 66 | 24 | 0.0 | 1.0 | 0.00 | 0.00 | 0.00 | 90 | 1017.8 |
| 20260902234434 | 66 | 137 | 0.0 | 1.0 | 0.00 | 0.00 | 0.00 | 89 | 1017.8 |
| 20260902233932 | 66 | 210 | 0.0 | 1.0 | 0.00 | 0.00 | 0.00 | 90 | 1018.0 |
| 20260902233427 | 66 | 115 | 0.0 | 0.0 | 0.00 | 0.00 | 0.00 | 91 | 1017.9 |
| 20260902232926 | 66 | 125 | 0.0 | 2.0 | 0.00 | 0.00 | 0.00 | 91 | 1017.8 |
| 20260902232421 | 67 | 229 | 0.0 | 1.0 | 0.00 | 0.00 | 0.00 | 90 | 1018.2 |
| 20260902231921 | 67 | 113 | 0.0 | 2.0 | 0.00 | 0.00 | 0.00 | 88 | 1018.3 |
| 20260902231416 | 67 | 296 | 2.0 | 2.0 | 0.00 | 0.00 | 0.00 | 87 | 1018.4 |
| 20260902230911 | 67 | 256 | 1.0 | 2.0 | 0.00 | 0.00 | 0.00 | 88 | 1018.3 |
| 20260902230410 | 67 | 272 | 0.0 | 0.0 | 0.00 | 0.00 | 0.00 | 88 | 1018.6 |
| 20260902225904 | 68 | 272 | 0.0 | 0.0 | 0.00 | 0.00 | 0.00 | 87 | 1018.8 |
| 20260902225359 | 68 | 291 | 2.0 | 3.0 | 0.00 | 0.00 | 0.00 | 86 | 1018.7 |
| 20260902224858 | 68 | 346 | 0.0 | 0.0 | 0.00 | 0.00 | 0.00 | 87 | 1018.6 |
| 20260902224352 | 68 | 305 | 0.0 | 1.0 | 0.00 | 0.00 | 0.00 | 89 | 1018.8 |
| 20260902223849 | 68 | 9 | 0.0 | 0.0 | 0.00 | 0.00 | 0.00 | 85 | 1019.0 |
| 20260902223349 | 68 | 287 | 0.0 | 1.0 | 0.00 | 0.00 | 0.00 | 85 | 1018.9 |
| 20260902222843 | 69 | 275 | 2.0 | 2.0 | 0.00 | 0.00 | 0.00 | 83 | 1019.0 |
| 20260902222342 | 69 | 287 | 0.0 | 2.0 | 0.00 | 0.00 | 0.00 | 84 | 1019.1 |
| 20260902221837 | 69 | 91 | 0.0 | 4.0 | 0.00 | 0.00 | 0.00 | 82 | 1018.9 |
| 20260902221336 | 68 | 278 | 2.0 | 4.0 | 0.00 | 0.00 | 0.00 | 84 | 1018.8 |
| 20260902220832 | 67 | 335 | 0.0 | 3.0 | 0.00 | 0.00 | 0.00 | 87 | 1018.7 |
| 20260902220331 | 67 | 247 | 0.0 | 1.0 | 0.00 | 0.00 | 0.00 | 89 | 1018.9 |
| 20260902215826 | 67 | 318 | 0.0 | 2.0 | 0.00 | 0.00 | 0.00 | 90 | 1018.9 |
| 20260902215321 | 67 | 217 | 0.0 | 0.0 | 0.00 | 0.00 | 0.00 | 90 | 1019.0 |
| 20260902214817 | 68 | 156 | 0.0 | 1.0 | 0.00 | 0.00 | 0.00 | 87 | 1018.9 |
| 20260902214316 | 68 | 83 | 0.0 | 0.0 | 0.00 | 0.00 | 0.00 | 87 | 1018.9 |
| 20260902213811 | 69 | 150 | 0.0 | 1.0 | 0.00 | 0.00 | 0.00 | 87 | 1018.7 |
| 20260902213307 | 69 | 324 | 0.0 | 0.0 | 0.00 | 0.00 | 0.00 | 83 | 1018.7 |
| 20260902212805 | 68 | 357 | 0.0 | 2.0 | 0.00 | 0.00 | 0.00 | 83 | 1018.6 |
| 20260902212305 | 69 | 162 | 0.0 | 2.0 | 0.00 | 0.00 | 0.00 | 83 | 1018.4 |
| 20260902211758 | 69 | 263 | 0.0 | 3.0 | 0.00 | 0.00 | 0.00 | 81 | 1018.7 |
| 20260902211253 | 70 | 267 | 2.0 | 4.0 | 0.00 | 0.00 | 0.00 | 80 | 1018.7 |
| 20260902210748 | 70 | 272 | 3.0 | 4.0 | 0.00 | 0.00 | 0.00 | 79 | 1018.7 |
| 20260902210243 | 70 | 283 | 3.0 | 3.0 | 0.00 | 0.00 | 0.00 | 81 | 1018.4 |
| 20260902205741 | 71 | 294 | 3.0 | 5.0 | 0.00 | 0.00 | 0.00 | 77 | 1018.3 |
| 20260902205236 | 71 | 288 | 2.0 | 5.0 | 0.00 | 0.00 | 0.00 | 79 | 1018.3 |
| 20260902204731 | 71 | 307 | 0.0 | 4.0 | 0.00 | 0.00 | 0.00 | 80 | 1018.1 |
| 20260902204227 | 70 | 273 | 3.0 | 3.0 | 0.00 | 0.00 | 0.00 | 84 | 1018.0 |
| 20260902203721 | 70 | 269 | 3.0 | 4.0 | 0.00 | 0.00 | 0.00 | 84 | 1018.1 |
| 20260902203216 | 69 | 293 | 2.0 | 3.0 | 0.00 | 0.00 | 0.00 | 85 | 1018.3 |
| 20260902202710 | 69 | 217 | 1.0 | 4.0 | 0.00 | 0.00 | 0.00 | 85 | 1018.2 |
| 20260902202207 | 69 | 66 | 0.0 | 2.0 | 0.00 | 0.00 | 0.00 | 88 | 1018.4 |
| 20260902201704 | 69 | 335 | 0.0 | 2.0 | 0.00 | 0.00 | 0.00 | 90 | 1018.4 |
| 20260902201203 | 69 | 330 | 0.0 | 1.0 | 0.00 | 0.00 | 0.00 | 90 | 1018.6 |
| 20260902200658 | 68 | 73 | 0.0 | 0.0 | 0.00 | 0.00 | 0.00 | 92 | 1018.8 |
| 20260902200153 | 68 | 235 | 0.0 | 1.0 | 0.00 | 0.00 | 0.00 | 92 | 1018.7 |
| 20260902195649 | 68 | 115 | 0.0 | 0.0 | 0.00 | 0.00 | 0.00 | 91 | 1018.7 |
| 20260902195148 | 68 | 115 | 0.0 | 0.0 | 0.00 | 0.00 | 0.00 | 92 | 1018.7 |
| 20260902194647 | 68 | 115 | 0.0 | 2.0 | 0.00 | 0.00 | 0.00 | 91 | 1018.7 |
| 20260902194142 | 68 | 229 | 0.0 | 1.0 | 0.00 | 0.00 | 0.00 | 92 | 1019.0 |
| 20260902193639 | 68 | 267 | 0.0 | 2.0 | 0.00 | 0.00 | 0.00 | 92 | 1018.9 |
| 20260902193139 | 69 | 235 | 0.0 | 1.0 | 0.00 | 0.00 | 0.00 | 89 | 1018.9 |
| 20260902192637 | 70 | 224 | 0.0 | 2.0 | 0.00 | 0.00 | 0.00 | 86 | 1019.2 |
| 20260902192137 | 70 | 132 | 0.0 | 2.0 | 0.00 | 0.00 | 0.00 | 85 | 1019.0 |
| 20260902191631 | 71 | 319 | 1.0 | 3.0 | 0.00 | 0.00 | 0.00 | 82 | 1019.2 |
| 20260902191126 | 71 | 217 | 0.0 | 1.0 | 0.00 | 0.00 | 0.00 | 85 | 1018.9 |
| 20260902190621 | 71 | 325 | 1.0 | 3.0 | 0.00 | 0.00 | 0.00 | 80 | 1019.1 |
| 20260902190116 | 71 | 296 | 2.0 | 3.0 | 0.00 | 0.00 | 0.00 | 79 | 1019.0 |
| 20260902185612 | 71 | 324 | 1.0 | 2.0 | 0.00 | 0.00 | 0.00 | 84 | 1019.1 |
| 20260902185108 | 71 | 280 | 1.0 | 2.0 | 0.00 | 0.00 | 0.00 | 81 | 1018.9 |
| 20260902184603 | 71 | 286 | 3.0 | 3.0 | 0.00 | 0.00 | 0.00 | 83 | 1019.0 |
| 20260902184058 | 71 | 296 | 4.0 | 4.0 | 0.00 | 0.00 | 0.00 | 77 | 1019.2 |
| 20260902183554 | 72 | 277 | 2.0 | 5.0 | 0.00 | 0.00 | 0.00 | 78 | 1019.1 |
| 20260902183050 | 72 | 261 | 2.0 | 3.0 | 0.00 | 0.00 | 0.00 | 78 | 1019.0 |
| 20260902182546 | 72 | 347 | 2.0 | 5.0 | 0.00 | 0.00 | 0.00 | 77 | 1018.9 |
| 20260902182043 | 71 | 121 | 2.0 | 3.0 | 0.00 | 0.00 | 0.00 | 80 | 1019.0 |
| 20260902181538 | 71 | 265 | 1.0 | 4.0 | 0.00 | 0.00 | 0.00 | 83 | 1018.8 |
| 20260902181032 | 72 | 358 | 3.0 | 8.0 | 0.00 | 0.00 | 0.00 | 79 | 1019.1 |
| 20260902180526 | 71 | 145 | 0.0 | 5.0 | 0.00 | 0.00 | 0.00 | 85 | 1019.2 |
| 20260902180023 | 71 | 311 | 4.0 | 4.0 | 0.00 | 0.00 | 0.00 | 80 | 1019.1 |
| 20260902175522 | 71 | 274 | 4.0 | 4.0 | 0.00 | 0.00 | 0.00 | 82 | 1019.1 |
| 20260902175019 | 71 | 296 | 0.0 | 1.0 | 0.00 | 0.00 | 0.00 | 86 | 1019.0 |
| 20260902174515 | 70 | 295 | 0.0 | 3.0 | 0.00 | 0.00 | 0.00 | 84 | 1019.4 |
| 20260902174010 | 70 | 208 | 2.0 | 3.0 | 0.00 | 0.00 | 0.00 | 82 | 1019.6 |
| 20260902173510 | 70 | 77 | 2.0 | 3.0 | 0.00 | 0.00 | 0.00 | 82 | 1019.6 |
| 20260902173005 | 70 | 15 | 1.0 | 3.0 | 0.00 | 0.00 | 0.00 | 82 | 1019.4 |
| 20260902172504 | 70 | 73 | 0.0 | 3.0 | 0.00 | 0.00 | 0.00 | 82 | 1019.8 |
| 20260902171959 | 70 | 69 | 2.0 | 3.0 | 0.00 | 0.00 | 0.00 | 82 | 1019.7 |
| 20260902171455 | 70 | 307 | 0.0 | 3.0 | 0.00 | 0.00 | 0.00 | 85 | 1019.7 |
| 20260902170951 | 70 | 280 | 2.0 | 4.0 | 0.00 | 0.00 | 0.00 | 83 | 1019.5 |
| 20260902170450 | 70 | 280 | 4.0 | 5.0 | 0.00 | 0.00 | 0.00 | 84 | 1019.5 |
| 20260902165946 | 69 | 312 | 3.0 | 3.0 | 0.00 | 0.00 | 0.00 | 85 | 1019.7 |
| 20260902165446 | 69 | 100 | 2.0 | 6.0 | 0.00 | 0.00 | 0.00 | 84 | 1019.5 |
| 20260902164940 | 69 | 75 | 1.0 | 4.0 | 0.00 | 0.00 | 0.00 | 85 | 1019.6 |
| 20260902164436 | 69 | 70 | 3.0 | 6.0 | 0.00 | 0.00 | 0.00 | 85 | 1019.7 |
| 20260902163935 | 69 | 38 | 1.0 | 5.0 | 0.00 | 0.00 | 0.00 | 85 | 1019.7 |
| 20260902163430 | 69 | 90 | 2.0 | 6.0 | 0.00 | 0.00 | 0.00 | 84 | 1019.9 |
| 20260902162928 | 68 | 111 | 2.0 | 3.0 | 0.00 | 0.00 | 0.00 | 84 | 1019.6 |
| 20260902162423 | 69 | 290 | 4.0 | 6.0 | 0.00 | 0.00 | 0.00 | 84 | 1019.5 |
| 20260902161923 | 68 | 61 | 3.0 | 5.0 | 0.00 | 0.00 | 0.00 | 87 | 1019.3 |
| 20260902161418 | 68 | 124 | 2.0 | 4.0 | 0.00 | 0.00 | 0.00 | 88 | 1019.6 |
| 20260902160914 | 67 | 164 | 1.0 | 4.0 | 0.00 | 0.00 | 0.00 | 87 | 1019.8 |
| 20260902160410 | 68 | 87 | 3.0 | 7.0 | 0.00 | 0.00 | 0.00 | 87 | 1019.5 |
| 20260902155908 | 68 | 165 | 3.0 | 3.0 | 0.00 | 0.00 | 0.00 | 87 | 1019.8 |
| 20260902155403 | 67 | 209 | 2.0 | 4.0 | 0.00 | 0.00 | 0.00 | 87 | 1019.7 |
| 20260902154856 | 67 | 118 | 0.0 | 4.0 | 0.00 | 0.00 | 0.00 | 90 | 1020.0 |
| 20260902154352 | 67 | 334 | 2.0 | 4.0 | 0.00 | 0.00 | 0.00 | 90 | 1020.1 |
| 20260902153851 | 67 | 269 | 0.0 | 2.0 | 0.00 | 0.00 | 0.00 | 89 | 1020.2 |
| 20260902153351 | 67 | 60 | 0.0 | 3.0 | 0.00 | 0.00 | 0.00 | 89 | 1020.3 |
| 20260902152847 | 67 | 290 | 1.0 | 5.0 | 0.00 | 0.00 | 0.00 | 88 | 1020.2 |
| 20260902152343 | 67 | 311 | 3.0 | 3.0 | 0.00 | 0.00 | 0.00 | 89 | 1020.5 |
| 20260902151838 | 67 | 291 | 3.0 | 4.0 | 0.00 | 0.00 | 0.00 | 89 | 1020.5 |
| 20260902151332 | 66 | 78 | 3.0 | 4.0 | 0.00 | 0.00 | 0.00 | 90 | 1020.5 |
| 20260902150827 | 66 | 344 | 1.0 | 3.0 | 0.00 | 0.00 | 0.00 | 90 | 1020.5 |
| 20260902150324 | 66 | 253 | 4.0 | 6.0 | 0.00 | 0.00 | 0.00 | 90 | 1020.7 |
| 20260902145823 | 66 | 83 | 0.0 | 6.0 | 0.00 | 0.00 | 0.00 | 90 | 1020.6 |
| 20260902145318 | 66 | 256 | 1.0 | 3.0 | 0.00 | 0.00 | 0.00 | 92 | 1020.3 |
| 20260902144814 | 66 | 23 | 0.0 | 3.0 | 0.00 | 0.00 | 0.00 | 89 | 1020.5 |
| 20260902144309 | 66 | 307 | 2.0 | 3.0 | 0.00 | 0.00 | 0.00 | 91 | 1020.1 |
| 20260902143804 | 66 | 162 | 3.0 | 4.0 | 0.00 | 0.00 | 0.00 | 92 | 1020.2 |
| 20260902143259 | 65 | 280 | 2.0 | 3.0 | 0.00 | 0.00 | 0.00 | 94 | 1020.0 |
| 20260902142755 | 65 | 141 | 1.0 | 2.0 | 0.00 | 0.00 | 0.00 | 95 | 1020.3 |
| 20260902142245 | 64 | 207 | 0.0 | 1.0 | 0.00 | 0.00 | 0.00 | 96 | 1020.2 |
| 20260902141744 | 65 | 152 | 1.0 | 2.0 | 0.00 | 0.00 | 0.00 | 96 | 1020.3 |
| 20260902141240 | 65 | 300 | 2.0 | 4.0 | 0.00 | 0.00 | 0.00 | 94 | 1020.1 |
| 20260902140735 | 64 | 342 | 1.0 | 3.0 | 0.00 | 0.00 | 0.00 | 95 | 1020.3 |
| 20260902140230 | 64 | 76 | 0.0 | 5.0 | 0.00 | 0.00 | 0.00 | 95 | 1020.1 |
| 20260902135729 | 65 | 89 | 3.0 | 4.0 | 0.00 | 0.00 | 0.00 | 95 | 1020.1 |
| 20260902135225 | 64 | 104 | 1.0 | 5.0 | 0.00 | 0.00 | 0.00 | 95 | 1020.2 |
| 20260902134724 | 64 | 319 | 0.0 | 2.0 | 0.00 | 0.00 | 0.00 | 96 | 1020.1 |
| 20260902134220 | 63 | 89 | 1.0 | 2.0 | 0.00 | 0.00 | 0.00 | 97 | 1020.2 |
| 20260902133715 | 63 | 175 | 0.0 | 3.0 | 0.00 | 0.00 | 0.00 | 97 | 1019.9 |
| 20260902133214 | 63 | 189 | 0.0 | 2.0 | 0.00 | 0.00 | 0.00 | 98 | 1020.1 |
| 20260902132710 | 63 | 132 | 0.0 | 2.0 | 0.00 | 0.00 | 0.00 | 99 | 1020.1 |
| 20260902132205 | 63 | 335 | 0.0 | 2.0 | 0.00 | 0.00 | 0.00 | 99 | 1020.1 |
| 20260902131701 | 63 | 219 | 2.0 | 2.0 | 0.00 | 0.00 | 0.00 | 99 | 1019.7 |
| 20260902131156 | 63 | 76 | 0.0 | 3.0 | 0.00 | 0.00 | 0.00 | 99 | 1020.2 |
| 20260902130652 | 62 | 247 | 0.0 | 2.0 | 0.00 | 0.00 | 0.00 | 99 | 1020.1 |
| 20260902130147 | 63 | 242 | 0.0 | 2.0 | 0.00 | 0.00 | 0.00 | 99 | 1019.9 |
| 20260902125637 | 62 | 93 | 1.0 | 5.0 | 0.00 | 0.00 | 0.00 | 99 | 1019.8 |
| 20260902125132 | 62 | 113 | 0.0 | 2.0 | 0.00 | 0.00 | 0.00 | 99 | 1019.8 |
| 20260902124629 | 62 | 203 | 0.0 | 1.0 | 0.00 | 0.00 | 0.00 | 99 | 1019.8 |
| 20260902124129 | 62 | 80 | 1.0 | 2.0 | 0.00 | 0.00 | 0.00 | 99 | 1019.8 |
| 20260902123625 | 62 | 86 | 1.0 | 4.0 | 0.00 | 0.00 | 0.00 | 99 | 1019.7 |